Tracking 19176 objects as of 26-May-2018
HD Live streaming from Space Station
objects crossing your sky now

COSMOS 2430

Track COSMOS 2430 now!
COSMOS 2430 is classified as:


NORAD ID: 32268
Int'l Code: 2007-049A
Perigee: 162.4 km
Apogee: 39,469.2 km
Inclination: 62.1 °
Period: 702.9 minutes
Semi major axis: 26186 km
RCS: 3.1623 m2 (large)
Launch date: October 23, 2007
Source: Commonwealth of Independent States (former USSR) (CIS)
Launch site: PLESETSK MISSILE AND SPACE COMPLEX (PKMTR)
aabbcc
Your satellite tracking list
Your tracking list is empty




NASA's NSSDC Master Catalog

Two Line Element Set (TLE):
1 32268U 07049A   18145.45633397  .00011997 -18569-5  17661-3 0  9996
2 32268  62.1004 254.6727 7505092 244.7708  23.8308  2.04870507 77617
Source of the keplerian elements: AFSPC